FLOCK 3P'-4 (43122 NORAD) Tracking and Keplerian Element Data

This shows tracking and keplerian element data for the satellite.

Feedback or suggestion? Click here.




ElementValue
Catalog43122
NameFLOCK 3P'-4
Epoch Orbit514
Epoch Day46.12860855
Epoch Year2018
RAAN108.3926
Inclination97.5506
Eccentricity0.0011208
Argument of Perigee155.4014
Mean Anonmoly204.7758
Mean Motion15.22073087
Decay Rate7.35E-06
L11 43122U 18004M 18046.12860855 .00000735 00000-0 35253-4 0 9996
L22 43122 97.5506 108.3926 0011208 155.4014 204.7758 15.22073087 5145

Live tracking and technical data element details for FLOCK 3P'-4 (NORAD 43122). FLOCK 3P'-4 can be tracked NOW for your location showing map with azimuth and elevation plus other details from your city location.

Track the satellite on the map from your city or location and see movement details for azimuth, elevation, latitude, longitude, range, height, and movement on the map or in text.







IsCatalogInMostPopularTable: catalog: 43122, numindb: 72
Update: records affected: 1



GetName: 43122 FLOCK 3P'-4

Hit Count: updated at: Sat, 21 Jul 2018 08:04:58 GMT